This demonstration page uses our WeatherBlox Daily Observations layout. Learn more.

Left ArrowRight Arrow

30.21309, -93.2044

Hourly Observations for April 30, 2022

Temp ( °F °C ) Dew Point ( °F °C ) Humidity (%) Winds ( mph kmh ) Pressure ( in mb ) Visibility ( mi km ) Precip ( " mm )
12:15 am 00:15 Clear 65 18.5 62 16.8 90 90 SSE 7 11 29.87 1012 10 16 0.00 0.00
12:35 am 00:35 Clear 64 17.8 62 16.4 92 92 SSE 7 11 29.87 1012 10 16 0.00 0.00
12:55 am 00:55 Clear 64 17.6 61 16.2 92 92 SSE 6 9 29.87 1012 10 16 0.00 0.00
1:15 am 01:15 Partly Cloudy 63 17.3 61 16 92 92 SSE 3 6 29.87 1012 10 16 0.00 0.00
1:35 am 01:35 Mostly Cloudy 63 17.3 61 16.2 93 93 S 3 6 29.88 1012 10 16 0.00 0.00
1:55 am 01:55 Cloudy 65 18.3 62 16.9 92 92 S 3 6 29.87 1012 10 16 0.00 0.00
2:15 am 02:15 Mostly Cloudy 64 18 62 16.9 93 93 SSE 3 6 29.86 1011 10 16 0.00 0.00
2:35 am 02:35 Cloudy 65 18.4 63 17.3 93 93 SSE 3 6 29.86 1011 10 16 0.00 0.00
2:55 am 02:55 Mostly Cloudy 65 18.4 63 17.2 93 93 SSE 3 6 29.86 1011 10 16 0.00 0.00
3:15 am 03:15 Mostly Cloudy 64 17.7 62 16.7 94 94 SSE 5 7 29.86 1011 10 16 0.00 0.00
3:35 am 03:35 Partly Cloudy 65 18.3 63 17.4 95 95 SE 5 7 29.86 1011 10 16 0.00 0.00
3:55 am 03:55 Partly Cloudy 65 18.3 63 17.4 95 95 SE 5 7 29.86 1011 7 11 0.00 0.00
4:15 am 04:15 Partly Cloudy 65 18.1 63 17.3 95 95 ESE 5 7 29.87 1012 7 11 0.00 0.00
4:35 am 04:35 Cloudy 65 18.4 64 17.6 95 95 ESE 5 7 29.87 1012 7 11 0.00 0.00
4:55 am 04:55 Cloudy 65 18.5 64 17.6 95 95 SE 5 7 29.87 1012 7 11 0.00 0.00
5:15 am 05:15 Partly Cloudy with Mist and Fog 65 18.1 63 17.2 95 95 ESE 5 7 29.86 1011 5 8 0.00 0.00
5:35 am 05:35 Partly Cloudy with Mist and Fog 64 17.9 63 17.1 95 95 SE 3 6 29.87 1012 5 8 0.00 0.00
6:00 am 06:00 Partly Cloudy 66 19 64 18 94 94 Calm 29.87 1012 10 16 0.00 0.00
6:54 am 06:54 Partly Cloudy 66 19 64 18 94 94 ESE 6 9 29.89 1012 10 16 0.00 0.00
7:45 am 07:45 Partly Cloudy 70 21 68 20 94 94 SE 7 11 29.91 1013 10 16 0.00 0.00
8:48 am 08:48 Partly Cloudy 75 24 70 21 83 83 SSE 10 17 29.92 1013 10 16 0.00 0.00
9:46 am 09:46 Mostly Cloudy 79 26 70 21 74 74 S 13 20 29.93 1014 10 16 0.00 0.00
10:50 am 10:50 Mostly Cloudy 81 27 70 21 70 70 S 14 22 29.94 1014 10 16 0.00 0.00
11:45 am 11:45 Mostly Cloudy 82 28 70 21 66 66 S 13 20 29.94 1014 10 16 0.00 0.00
12:46 pm 12:46 Mostly Cloudy 82 28 70 21 66 66 S 15 24 29.93 1014 10 16 0.00 0.00
1:51 pm 13:51 Mostly Cloudy 82 28 70 21 66 66 S 14 22 29.92 1013 10 16 0.00 0.00
2:50 pm 14:50 Mostly Cloudy 82 28 70 21 66 66 S 15 24 29.90 1013 10 16 0.00 0.00
3:45 pm 15:45 Mostly Cloudy 82 28 70 21 66 66 SSW 16 26 29.89 1012 10 16 0.00 0.00
4:45 pm 16:45 Mostly Cloudy 82 28 70 21 66 66 SSW 20 31 29.88 1012 10 16 0.00 0.00
5:50 pm 17:50 Mostly Cloudy 79 26 70 21 74 74 S 14 22 29.88 1012 10 16 0.00 0.00
6:45 pm 18:45 Partly Cloudy 79 26 70 21 74 74 SSW 14 22 29.88 1012 10 16 0.00 0.00
7:47 pm 19:47 Mostly Sunny 77 25 70 21 79 79 S 8 13 29.90 1013 10 16 0.00 0.00
8:55 pm 20:55 Mostly Clear 73 23 70 21 89 89 Calm 29.91 1013 10 16 0.00 0.00
9:51 pm 21:51 Mostly Clear 72 22 68 20 88 88 Calm 29.94 1014 10 16 0.00 0.00
10:15 pm 22:15 Clear 71 21.5 68 20.2 92 92 SSE 6 9 29.93 1014 10 16 0.00 0.00
10:35 pm 22:35 Clear 70 21.2 68 20 93 93 S 5 7 29.93 1014 10 16 0.00 0.00
10:55 pm 22:55 Clear 70 20.9 68 19.8 93 93 S 5 7 29.94 1014 10 16 0.00 0.00
11:15 pm 23:15 Clear 70 21.3 69 20.3 94 94 S 6 9 29.95 1014 10 16 0.00 0.00
11:35 pm 23:35 Clear 72 22.2 69 20.8 92 92 S 6 9 29.94 1014 10 16 0.00 0.00
11:55 pm 23:55 Clear 71 21.4 68 20.2 93 93 SSE 5 7 29.93 1014 7 11 0.00 0.00

Powered by AerisWeather